Regional Weather Roundup
Issued by NWS

Home | Current Version | Previous Version | Graphics & Text | Print | Product List | Glossary On
Versions: 1 2 3 4 5 6 7 8 9 10 11 12 13 14 15 16 17 18 19 20 21 22 23 24 25 26 27 28 29 30 31 32 33 34 35 36 37 38 39 40 41 42 43 44 45 46 47 48 49 50
000
ASUS43 KLSX 022107
RWRMO

WEATHER SUMMARY FOR MISSOURI
NATIONAL WEATHER SERVICE SPRINGFIELD MO
400 PM CDT MON MAY 02 2016

NOTE: "FAIR" INDICATES FEW OR NO CLOUDS BELOW 12,000 FEET WITH NO
       SIGNIFICANT WEATHER AND/OR OBSTRUCTIONS TO VISIBILITY.
       CURRENT SKY AND/OR WEATHER CONDITIONS ARE NOT AVAILABLE FOR
       CHILLICOTHE AND FARMINGTON.

MOZ001>031-035>038-043-044-053-054-022200-
...NORTHERN AND WESTERN MISSOURI...

CITY           SKY/WX    TMP DP  RH WIND       PRES   REMARKS
KANSAS CTY INT CLOUDY    56  46  69 CALM      30.08F
KANSAS C DTWN  CLOUDY    56  46  69 CALM      30.08F
LEE`S SUMMIT   CLOUDY    54  45  71 N6        30.08F
ST JOSEPH      CLOUDY    59  43  55 CALM      30.07F
CHILLICOTHE      N/A     62  44  51 NE6       30.06F
KIRKSVILLE     CLOUDY    55  46  71 VRB3      30.06F

$$
MOZ066>068-077>081-088>096-101>105-022200-
...SOUTHWEST MISSOURI...

CITY           SKY/WX    TMP DP  RH WIND       PRES   REMARKS
SPRINGFIELD    CLOUDY    52  44  74 NW8       30.07F
JOPLIN         CLOUDY    55  44  66 NW6       30.09F
BRANSON        CLOUDY    52  48  87 NW6       30.08S FOG

$$
MOZ032>034-039>042-045>050-055>058-069>072-022200-
...CENTRAL MISSOURI...

CITY           SKY/WX    TMP DP  RH WIND       PRES   REMARKS
COLUMBIA       CLOUDY    53  48  83 W3        30.06F
JEFFERSON CITY CLOUDY    53  47  79 N3        30.06F
ROLLA          CLOUDY    53  47  79 NW7       30.03F
SEDALIA        CLOUDY    54  47  77 W7        30.08F
WHITEMAN AFB   CLOUDY    52  50  91 N7        30.07F
WARRENSBURG    CLOUDY    54  46  76 W5        30.08F
OSAGE BEACH    CLOUDY    54  39  58 W5        30.07S

$$
MOZ051-052-059>065-022200-
...EAST CENTRAL MISSOURI...

CITY           SKY/WX    TMP DP  RH WIND       PRES   REMARKS
ST LOUIS INTL  CLOUDY    57  48  72 NW5       30.03F
SPIRIT OF STL  CLOUDY    56  49  77 NW7       30.03F
ST CHARLES     CLOUDY    55  49  80 S3        30.03F

$$
MOZ072>076-082>087-097>100-106>115-022200-
...SOUTH CENTRAL AND SOUTHEAST MISSOURI...

CITY           SKY/WX    TMP DP  RH WIND       PRES   REMARKS
CAPE GIRARDEAU CLOUDY    63  50  62 NW10      29.99F
FARMINGTON     CLOUDY    59  47  64 NW12      30.02F
POPLAR BLUFF   CLOUDY    68  52  56 VRB6      29.98F
WEST PLAINS    CLOUDY    60  45  57 NW12      30.04F

$$



USA.gov is the U.S. government's official web portal to all federal, state and local government web resources and services.